Showing default

VENUS, 42901

Orbit data source: Space-Track

VENUS, 42901 is an Israeli payload satellite in SSO that was launched on Wed, 02 Aug 2017 UTC via a VEGA launch vehicle from the French Guiana (FRGUI). Payload-class satellites include a variety of spacecraft equipped with specific instruments for various scientific and technological missions. These include communications satellites like Starlink; space stations such as the ISS; scientific satellites like the Hubble; Earth observation satellites from companies like Planet Labs, Umbra, and HawkEye 360; GPS; miniature CubeSats for education and research; and military/defense satellites.

Loading next visibility...
Identifier
42901, 2017-044B
Orbit
SSO
Country
Flag of UnknownUnknown / ISRA
Related business
Manufacturer
IAI
Mission
Non-operational Civil Imaging
Bus & Motor
VENMS, HET-300
Mass
264 kg wet, ~250 kg dry
Launch date (UTC)
2017-08-02 (8 years ago)
Launch vehicle
VEGA
Launch site
French Guiana (FRGUI)
Object type
Payload
Rocket body
Debris
Shape & HBR
Box + 2 Pan, 2.3 m
Radar Cross Section
3.833 m², Large (>1 m²)

Expand to show TLE details & history
Last TLE update: 8 hours ago

TLE from 8 hours ago
0 VENUS
1 42901U 17044B   25353.00686293  .00004915  00000-0  28832-3 0  9999
2 42901  97.2974  32.5393 0001959 265.9742  94.1265 15.12186627453705
Epoch: 2025-12-19T00:09Z
TLE epoch observation values (Epoch: 2025-12-19T00:09:52.957Z)
Latitude
-0.00003°
Longitude
-57.78556°
Altitude
532.713 km
Speed
7.596 km/s
True Right ascension
02h 10m 09s
True Declination
0° 00' 00"
Sunlit
Object was in full shadow at epoch
Visualization orbit readout
Latitude
Unknown
Longitude
Unknown
Altitude
Unknown
Speed
Unknown
Apparent Right ascension
Unknown
Apparent Declination
Unknown
Sunlit
N/A
Visualization observer readout
Local Sidereal Time
06:52:51
Azimuth
Unknown
Elevation
Unknown
Doppler factor
Unknown
Orbital elements
Apogee altitude
527.857 km
Perigee altitude
525.152 km
Semi-major axis
6,904.642 km
Eccentricity
0.0002
Inclination
97.2974°
RAAN
32.5393°
Arg. of periapsis
265.9742°
True anomaly
94.14889°
Mean anomaly
94.1265°
Eccentric anomaly
94.13769°
Mean motion
3.78296 °/min
Orbital period
95.16 mins
BSTAR
0.00028832
Loading maneuver chart data...
Computing Atmospheric mass density...
Loading historical data...
Loading historical data...
Loading historical data...
Loading historical data...
Loading historical data...
Loading historical data...
Loading historical data...
Other satellites on launch #44 in the year 2017 (2017-08-02 UTC)

Documentation

Showing up to 5 results
|